Location: Usti nad Orlici
(49.9830°N, 16.4000°E)
Time: 23:04:39
(UTC+02:00)

ISS - Pass Details

Date: 26 March 2019
Orbit: 408 x 410 km, 51.6° (Epoch: 21 April)

Event Time Altitude Azimuth Distance (km) Brightness Sun altitude
Rises 19:23:05 0° 248° (WSW) 2,331 0.9 -11.3°
Reaches altitude 10° 19:25:10 10° 248° (WSW) 1,471 -0.2 -11.7°
Maximum altitude 19:28:28 80° 163° (SSE) 420 -3.9 -12.2°
Enters shadow 19:30:49 18° 75° (ENE) 1,087 -2.2 -12.5°
